Erie, PA

12:01 PM EST on December 16, 2017 (GMT -0500)
Erie International

Weather History for KERI - April, 2013

Change the Weather History Date:

Thursday, April 18, 2013

  Actual Average Record
Temperature  
Mean Temperature 65 °F 48 °F  
Max Temperature 85 °F 57 °F 85 °F (2013)
Min Temperature 45 °F 39 °F 14 °F (1875)
Degree Days  
Heating Degree Days 0 17  
Month to date heating degree days 367 364  
Since 1 July heating degree days 5456 5640  
Cooling Degree Days 0 0  
Month to date cooling degree days 0 0  
Year to date cooling degree days 0 1  
Growing Degree Days 13 (Base 50)    
Moisture  
Dew Point 52 °F    
Average Humidity 58    
Maximum Humidity 78    
Minimum Humidity 37    
Precipitation  
Precipitation T in 0.11 in 1.07 in (1938)
Month to date precipitation 1.68 2.08  
Year to date precipitation 10.79 10.37  
Snow  
Snow 0.00 in 0.00 in - ()
Month to date snowfall T 2.9  
Since 1 July snowfall 104.5 100.6  
Snow Depth 0.00 in    
Sea Level Pressure  
Sea Level Pressure 29.84 in    
Wind  
Wind Speed 16 mph (South)    
Max Wind Speed 32 mph    
Max Gust Speed 41 mph    
Visibility 10 miles    
Events      
T = Trace of Precipitation, MM = Missing Value Source: NWS Daily Summary

Daily Weather History Graph

Daily Weather History Graph

Search for Another Location

Airport or City:

Trip Planner

Search our weather history database for the weather conditions in past years. The results will help you decide how hot, cold, wet, or windy it might be!

Date:

Astronomy

Apr. 18, 2013 Rise Set
Actual Time 6:35 AM EDT 8:05 PM EDT
Civil Twilight 6:05 AM EDT 8:34 PM EDT
Nautical Twilight 5:30 AM EDT 9:10 PM EDT
Astronomical Twilight 4:52 AM EDT 9:48 PM EDT
Moon 12:44 PM EDT (4/18) 2:20 AM EDT (4/18)
Length of Visible Light 14h 29m
Length of Day
13h 30m
First Quarter, 51% of the Moon is Illuminated
Apr 18
First Quarter
Apr 25
Full
May 2
Last Quarter
May 9
New
May 18
First Quarter

Hourly Weather History & Observations

Time (EDT) Temp. Windchill Dew Point Humidity Pressure Visibility Wind Dir Wind Speed Gust Speed Precip Events Conditions
12:51 AM 45.0 °F 40.6 °F 36.0 °F 71% 30.12 in 10.0 mi ENE 8.1 mph - N/A   Overcast
1:51 AM 46.9 °F - 37.0 °F 68% 30.06 in 10.0 mi Calm Calm - N/A   Mostly Cloudy
2:51 AM 46.9 °F - 39.0 °F 74% 30.01 in 10.0 mi NNW 9.2 mph - N/A   Partly Cloudy
3:51 AM 46.0 °F - 39.0 °F 76% 29.98 in 10.0 mi Calm Calm - N/A   Mostly Cloudy
4:51 AM 63.0 °F - 52.0 °F 67% 29.95 in 10.0 mi SSE 10.4 mph 19.6 mph N/A   Clear
5:51 AM 64.0 °F - 53.1 °F 67% 29.91 in 10.0 mi SSE 16.1 mph 32.2 mph N/A   Clear
6:51 AM 64.0 °F - 54.0 °F 70% 29.90 in 10.0 mi South 23.0 mph 33.4 mph N/A   Clear
7:51 AM 64.0 °F - 54.0 °F 70% 29.92 in 10.0 mi South 19.6 mph 34.5 mph N/A   Clear
8:51 AM 66.0 °F - 55.0 °F 68% 29.91 in 10.0 mi South 23.0 mph 33.4 mph N/A   Clear
9:51 AM 70.0 °F - 55.9 °F 61% 29.88 in 10.0 mi SSE 27.6 mph 36.8 mph N/A   Clear
10:51 AM 75.0 °F - 55.9 °F 51% 29.85 in 10.0 mi South 23.0 mph 36.8 mph N/A   Clear
11:51 AM 78.8 °F - 57.2 °F 47% 29.85 in 10.0 mi South 23.0 mph 36.8 mph N/A   Clear
12:51 PM 80.1 °F - 59.0 °F 48% 29.81 in 10.0 mi SSW 26.5 mph 35.7 mph N/A   Overcast
1:51 PM 82.0 °F - 59.0 °F 45% 29.78 in 10.0 mi South 17.3 mph 29.9 mph N/A   Clear
2:51 PM 84.0 °F - 57.9 °F 41% 29.77 in 10.0 mi SSW 25.3 mph 38.0 mph N/A   Scattered Clouds
3:51 PM 82.9 °F - 57.0 °F 41% 29.73 in 10.0 mi South 26.5 mph 35.7 mph N/A   Partly Cloudy
4:51 PM 84.0 °F - 57.0 °F 40% 29.71 in 10.0 mi SSW 20.7 mph 38.0 mph N/A   Mostly Cloudy
5:51 PM 84.0 °F - 55.0 °F 37% 29.68 in 10.0 mi South 20.7 mph 31.1 mph N/A   Partly Cloudy
6:51 PM 82.9 °F - 55.0 °F 38% 29.68 in 10.0 mi South 18.4 mph 28.8 mph N/A   Partly Cloudy
7:51 PM 82.0 °F - 53.1 °F 37% 29.67 in 10.0 mi South 15.0 mph 21.9 mph N/A   Clear
8:51 PM 80.1 °F - 53.1 °F 39% 29.66 in 10.0 mi South 17.3 mph 23.0 mph N/A   Clear
9:51 PM 64.9 °F - 55.0 °F 70% 29.68 in 10.0 mi South 4.6 mph - N/A   Mostly Cloudy
10:51 PM 63.0 °F - 55.9 °F 78% 29.73 in 10.0 mi WSW 9.2 mph 18.4 mph N/A   Overcast
11:51 PM 64.9 °F - 55.9 °F 73% 29.72 in 10.0 mi South 5.8 mph - 0.00 in   Overcast